Regional Weather Roundup
Issued by NWS

Home | Current Version | Previous Version | Text Only | Print | Product List | Glossary On
Versions: 1 2 3 4 5 6 7 8 9 10 11 12 13 14 15 16 17 18 19 20 21 22 23 24 25 26 27 28 29 30 31 32 33 34 35 36 37 38 39 40 41 42 43 44 45 46 47 48 49 50
000
ASHW40 PHFO 261443
RWRHI

WEATHER ROUNDUP FOR HAWAII
NATIONAL WEATHER SERVICE HONOLULU HI
400 AM HST TUE JUL 26 2016

THIS IS AN AUTOMATED REPORT THAT HAS NOT BEEN QUALITY CONTROLLED.

NOTE..."FAIR" INDICATES FEW OR NO CLOUDS BELOW 12,000 FEET WITH NO
SIGNIFICANT WEATHER AND/OR OBSTRUCTIONS TO VISIBILITY.

* - THESE SITES REPORT LIMITED FIELDS

HIZ001>004-261500-
KAUAI-NIIHAU-

CITY           SKY/WX    TMP DP  RH WIND       PRES   REMARKS
LIHUE APT      CLOUDY    78  74  87 E10       29.99S
PORT ALLEN*      N/A     73 N/A N/A NE5         N/A
POIPU*           N/A     77 N/A N/A NE5         N/A
PRINCEVILLE*     N/A     75 N/A N/A E5          N/A
KOKOLE POINT*  NOT AVBL
MOLOAA DAIRY*    N/A     77  73  88 E5G12       N/A
WAIMEA HTS*      N/A     75  66  73 CALM        N/A
PUU OPAE*        N/A     70  66  88 N1          N/A
PUU LUA*       NOT AVBL
MAKAHA RIDGE*    N/A     72  64  78 E2          N/A
$$

HIZ005>011-261500-
OAHU-

CITY           SKY/WX    TMP DP  RH WIND       PRES   REMARKS
HONOLULU       PTCLDY    72  68  87 CALM      29.97S
KALAELOA       CLEAR     75  68  78 E3        29.98F
KANEOHE MCB    PTCLDY    79  73  82 E3        29.97R
WHEELER FIELD  FAIR      70  67  92 CALM      29.99F
BELLOWS*         N/A    N/A N/A N/A E10         N/A
KAHUKU*          N/A    N/A N/A N/A VRB5        N/A
WHEELER*         N/A    N/A N/A N/A S3          N/A
WAIANAE HARBOR   N/A    N/A N/A N/A N3          N/A
DILLINGHAM*      N/A     68  64  88 MISG        N/A
KAHUKU TRN*      N/A     73  72  94 W5G13       N/A
KAWAILOA*        N/A     72  64  78 E3          N/A
KII*             N/A     79  73  83 E12         N/A
MAKUA RANGE*     N/A     73  68  83 NW7         N/A
OAHU FOREST NW   N/A     72  68  88 SE10G31     N/A
SCHOFIELD BRK*   N/A     70  66  88 MISG        N/A
SCHOFIELD S*   NOT AVBL
WAIANAE VLY*     N/A     73  68  83 VRB3        N/A
KUAOKALA*        N/A     73  68  83 E7          N/A
HONOULIUULI*   NOT AVBL
MOKUOLOE IS*   NOT AVBL
PALEHUA*         N/A     68  68 100 NE14G22     N/A
WAIAWA PHB*    NOT AVBL
$$

HIZ012>013-261500-
MOLOKAI-

CITY           SKY/WX    TMP DP  RH WIND       PRES   REMARKS
MOLOKAI AIRPT  CLEAR     72  66  81 NW3       29.98F
KALAUPAPA      NOT AVBL
MAKAPULAPAI*     N/A     79  70  73 E12G18      N/A
MOLOKAI 1*     NOT AVBL
PUU ALII*        N/A     62  61  96 E3G14       N/A
$$

HIZ016-261500-
KAHOOLAWE-

CITY           SKY/WX    TMP DP  RH WIND       PRES   REMARKS
KAHOOLAWE*     NOT AVBL
HAKIOAWA*        N/A     71  68  90 MISG        N/A
HONOKANAIA*      N/A     79  68  69 NE16G25     N/A
KANELOA*         N/A     75  70  83 NE15G26   30.04S
KEALIALALO*    NOT AVBL
LUA MAKIKA*    NOT AVBL
$$

HIZ014>015-261500-
LANAI-

CITY           SKY/WX    TMP DP  RH WIND       PRES   REMARKS
LANAI CITY     CLOUDY    71  68  90 N7        30.03F
LANAI 1*       NOT AVBL
$$

HIZ017>028-261500-
MAUI-

CITY           SKY/WX    TMP DP  RH WIND       PRES   REMARKS
KAHULUI        CLEAR     71  68  90 SE5       29.96F
KAPALUA-W MAUI NOT AVBL
HANA AIRPORT     N/A     77  73  88 SE3       30.02R
HANA*            N/A     77 N/A N/A S5          N/A
HALEAKALA SUMM   N/A     48  23  37 E26G40      N/A
MAALAEA BAY*     N/A     77 N/A N/A VRB8G14     N/A
HALEAKALA*     NOT AVBL
KAUPO GAP*       N/A     72  46  40 NW9G16      N/A
KULA 1*          N/A    N/A N/A N/A NE5G24      N/A
$$

HIZ023>026-261500-
BIG ISLAND OF HAWAII COAST AND LOWER SLOPES-

CITY           SKY/WX    TMP DP  RH WIND       PRES   REMARKS
KAILUA KONA    CLOUDY    81  72  74 SE6       29.93S
HILO           MOCLDY    73  63  70 SW7       30.00S
HONOKAA*         N/A     64 N/A N/A VRB1        N/A
KAWAIHAE MWT*    N/A     79 N/A N/A E1          N/A
KAWAIHAE*        N/A     81 N/A N/A E2        29.93F
SOUTH POINT*     N/A     73 N/A N/A N18G25      N/A
UPOLU AIRPORT*   N/A    N/A N/A N/A E8          N/A
KAMUELA*       CLOUDY    61  57  88 E8        30.08S
HAKALAU*         N/A     53  33  47 SW7         N/A
KALOKO-HONOKO*   N/A     79  73  83 E3        29.93S
PALI 2*          N/A     64  61  88 S13G18      N/A
KEALAKOMO*       N/A     79  66  65 NE9G15      N/A
KAUPULEHU*       N/A     73  68  83 S5          N/A
KAPAPALA*        N/A     59  55  88 NW6         N/A
LOWER KAHUKU*    N/A     63  59  88 VRB3G13     N/A
PUHE CS*         N/A     79  64  61 E5G10       N/A
PUHO CS*       NOT AVBL
PTA KEAMUKU*     N/A     63  59  88 CALM        N/A
WAIKOLOA*        N/A     72  64  78 SE6         N/A
$$

HIZ027>028-261500-
BIG ISLAND OF HAWAII INTERIOR AND SUMMMITS-

CITY           SKY/WX    TMP DP  RH WIND       PRES   REMARKS
BRADSHAW FIELD PTCLDY   N/A N/A N/A SE3         N/A
MK VISITOR CEN   N/A     55   9  15 NE12        N/A
MAUNA KEA*       N/A     34   7  32 SE35        N/A  WCI  19
MAUNA LOA*       N/A    N/A N/A N/A MISG        N/A
MAUNA LOA 1*   NOT AVBL
PTA KIPUKA*      N/A     55  54  94 SE3G12      N/A
PTA RANGE 17*    N/A    N/A N/A N/A E16G25      N/A
PTA WEST*        N/A     59  57  94 SE8         N/A
NENE CABIN*      N/A    N/A N/A N/A NE3G10      N/A
AHUMOA*          N/A     59  33  37 NE1G7       N/A
PTA PORTABLE*  NOT AVBL
PUU MALI*        N/A    N/A N/A N/A SE12G26     N/A
$$

HIC003-261500-
NORTHWEST ISLANDS-

CITY           SKY/WX    TMP DP  RH WIND       PRES   REMARKS
MIDWAY ISLAND  MOCLDY    75  70  83 E17       30.13S
MIDWAY NOS*      N/A     79 N/A N/A MISG      30.12S
FRENCH FRIGATE NOT AVBL
$$

PHZ110>124-180-261500-
BUOY REPORTS

STATION/POSITION TIME  TEMP    WIND        PRES    WAVE   SWELL
                       AIR SEA DIR/SP/G            HT/PER HT/DIR
                 (UTC) (F)     (DEG/KT/KT) (MB)    (FT/S) (FT/D)
BUOY 51001       1400   80 81   80/ 14/ 16 1015.0S
BUOY 51101       1350   77 78   90/ 10/ 14 1014.6F   7/ 8   7/100
BUOY 51100       NOT AVBL
BUOY 51002       1350   81 82   90/ 12/ 14 1012.2F   5/ 9   5
BUOY 51003       1350   81 82   90/ 10/ 12 1013.6S   5/ 8   5/ 50
BUOY 51004       1350   80 81   60/ 16/ 17 1013.6F   6/ 6   3/ 70
BARBERS PT BUOY  NOT AVBL
WAIMEA BAY BUOY  1404      80                N/A     3/ 8
KAILUA BAY BUOY  1411      79                N/A     5/10   2/ 80
LANAI BUOY       1415      82                N/A     3/13   2/180
BARBERS PT 2     NOT AVBL
PAUWELA MAUI     1409      80                N/A     5/ 9   2/ 80
HILO             1412      79                N/A     5/ 9   2/ 50
KANEOHE BAY BUOY 1406      79                N/A     4/ 9
HANALEI KAUAI    NOT AVBL
KAHULUI HARBOR   1400   77 80  320/  7/ 11 1014.4F
HONOLULU HARBOR  1400   79 80   CALM  /  3 1015.5F
KILO NALU        NOT AVBL
HILO HARBOR      1400   74 78  200/  6/  7 1015.4S
MOKUOLOE         1300   78 82  110/  3/  6 1015.3F
NAWILIWILI       1400   78 80   70/ 10/ 12 1015.1F
WHOTS BUOY       NOT AVBL
BUOY 51028       NOT AVBL
$$

......................KEY........................................
  SKY/WX - SKY CONDITIONS/PRESENT WEATHER
  TMP    - TEMPERATURE IN FAHRENHEIT
  DWPT   - DEWPOINT IN FAHRENHEIT
  RH     - RELATIVE HUMIDITY IN PERCENT
  WIND   - DIRECTION AND SPEED /MPH FOR ISLANDS...KTS FOR BUOYS/
  PRES   - MEAN SEA LEVEL PRESSURE IN INCHES OF HG
  VSB    - VISIBILITY IN MILES
  HX     - HEAT INDEX
  WCI    - WIND CHILL INDEX
  VRB    - VARIABLE WIND DIRECTION
  N/A    - NOT AVAILABLE




USA.gov is the U.S. government's official web portal to all federal, state and local government web resources and services.